Patuxent River, MD

11:38 PM EST on February 20, 2017 (GMT -0500)
Patuxent River Naval Air Station

Weather History for KNHK - May, 2013

Change the Weather History Date:

Wednesday, May 15, 2013

  Actual Average Record
Temperature  
Mean Temperature 70 °F -  
Max Temperature 84 °F 72 °F 89 °F (1983)
Min Temperature 57 °F 55 °F 46 °F (1984)
Cooling Degree Days 4    
Growing Degree Days 20 (Base 50)    
Moisture  
Dew Point 53 °F    
Average Humidity 56    
Maximum Humidity 71    
Minimum Humidity 46    
Precipitation  
Precipitation 0.00 in - - ()
Sea Level Pressure  
Sea Level Pressure 29.88 in    
Wind  
Wind Speed 8 mph (South)    
Max Wind Speed 13 mph    
Max Gust Speed 22 mph    
Visibility 10 miles    
Events Rain    
Averages and records for this station are not official NWS values.
T = Trace of Precipitation, MM = Missing Value Source: NWS Daily Summary

Daily Weather History Graph

Daily Weather History Graph

Search for Another Location

Airport or City:

Trip Planner

Search our weather history database for the weather conditions in past years. The results will help you decide how hot, cold, wet, or windy it might be!

Date:

Astronomy

May. 15, 2013 Rise Set
Actual Time 5:54 AM EDT 8:10 PM EDT
Civil Twilight 5:24 AM EDT 8:39 PM EDT
Nautical Twilight 4:48 AM EDT 9:16 PM EDT
Astronomical Twilight 4:08 AM EDT 9:56 PM EDT
Moon 10:27 AM EDT (5/15) No Moon Set
Length of Visible Light 15h 15m
Length of Day
14h 15m
Waxing Crescent, 26% of the Moon is Illuminated
May 15
Waxing Crescent
May 18
First Quarter
May 25
Full
May 31
Last Quarter
Jun 8
New

Hourly Weather History & Observations

Time (EDT) Temp. Heat Index Dew Point Humidity Pressure Visibility Wind Dir Wind Speed Gust Speed Precip Events Conditions
12:52 AM 59.0 °F - 48.9 °F 69% 30.06 in 10.0 mi SE 6.9 mph - N/A   Mostly Cloudy
1:52 AM 59.0 °F - 46.9 °F 64% 30.04 in 10.0 mi SSE 5.8 mph - N/A   Overcast
2:52 AM 60.1 °F - 45.0 °F 57% 30.02 in 10.0 mi ESE 5.8 mph - N/A   Overcast
3:52 AM 60.1 °F - 43.0 °F 53% 29.99 in 10.0 mi SSE 9.2 mph - N/A   Overcast
4:52 AM 60.1 °F - 42.1 °F 51% 29.98 in 10.0 mi SSE 5.8 mph - N/A   Mostly Cloudy
5:52 AM 57.9 °F - 44.1 °F 60% 29.99 in 10.0 mi Calm Calm - N/A   Scattered Clouds
6:52 AM 60.1 °F - 44.1 °F 55% 29.98 in 10.0 mi South 6.9 mph - N/A   Scattered Clouds
7:52 AM 61.0 °F - 45.0 °F 56% 29.97 in 10.0 mi SSW 9.2 mph - N/A   Scattered Clouds
8:52 AM 64.0 °F - 46.0 °F 52% 29.96 in 10.0 mi SSW 9.2 mph - N/A   Scattered Clouds
9:52 AM 64.0 °F - 46.9 °F 54% 29.97 in 10.0 mi SSW 5.8 mph - N/A   Mostly Cloudy
10:04 AM 64.4 °F - 48.2 °F 56% 29.93 in 10.0 mi South 6.9 mph - 0.00 in Rain Light Rain
10:32 AM 66.2 °F - 50.0 °F 56% 29.95 in 10.0 mi SW 5.8 mph - 0.00 in   Mostly Cloudy
10:52 AM 68.0 °F - 51.1 °F 55% 29.94 in 10.0 mi SSW 8.1 mph - 0.00 in   Mostly Cloudy
11:52 AM 72.0 °F - 53.1 °F 51% 29.89 in 10.0 mi SE 8.1 mph - N/A   Mostly Cloudy
12:52 PM 73.0 °F - 55.0 °F 53% 29.87 in 10.0 mi SSW 8.1 mph 17.3 mph N/A   Scattered Clouds
1:52 PM 78.1 °F - 57.9 °F 50% 29.88 in 10.0 mi SW 9.2 mph 17.3 mph N/A   Scattered Clouds
2:52 PM 73.0 °F - 60.1 °F 64% 29.83 in 10.0 mi ESE 11.5 mph - N/A   Scattered Clouds
3:52 PM 75.9 °F - 63.0 °F 64% 29.82 in 10.0 mi East 6.9 mph - N/A   Partly Cloudy
4:52 PM 73.0 °F - 63.0 °F 71% 29.77 in 10.0 mi ESE 11.5 mph - N/A   Partly Cloudy
5:52 PM 82.9 °F 83.3 °F 61.0 °F 47% 29.73 in 10.0 mi SSW 9.2 mph 17.3 mph N/A   Partly Cloudy
6:52 PM 82.9 °F 83.2 °F 60.1 °F 46% 29.72 in 10.0 mi SSW 12.7 mph 17.3 mph N/A   Scattered Clouds
7:52 PM 81.0 °F 81.3 °F 59.0 °F 47% 29.72 in 10.0 mi SSW 10.4 mph 21.9 mph N/A   Mostly Cloudy
8:52 PM 79.0 °F - 59.0 °F 50% 29.73 in 10.0 mi SSW 11.5 mph - N/A   Clear
9:52 PM 79.0 °F - 59.0 °F 50% 29.75 in 10.0 mi SSW 12.7 mph 19.6 mph N/A   Clear
10:52 PM 78.1 °F - 60.1 °F 54% 29.76 in 10.0 mi SW 12.7 mph - N/A   Clear
11:52 PM 75.9 °F - 60.1 °F 58% 29.76 in 10.0 mi SW 12.7 mph - N/A   Clear